GW1572 Weather Reports


time (UTC)temp
F
wind
direction
speed
knots
gust
knots
rain 1hr
in
rain 24hr
in
rain mn
in
humidity
%
barometer
mb
20260510001511 67 276 0.0 0.0 0.00 0.00 0.00 74 1001.0
20260510000943 68 277 0.0 0.0 0.00 0.00 0.00 71 1001.3
20260510000349 69 256 0.0 0.0 0.00 0.00 0.00 70 1001.0
20260509235710 70 286 0.9 1.7 0.00 0.00 0.00 65 1001.0
20260509235126 70 314 1.7 1.7 0.00 0.00 0.00 64 1001.0
20260509234543 71 13 2.6 5.2 0.00 0.00 0.00 63 1001.0
20260509233949 71 340 2.6 3.5 0.00 0.00 0.00 61 1001.0
20260509233339 72 16 0.9 0.9 0.00 0.00 0.00 61 1001.0
20260509232130 72 348 1.7 2.6 0.00 0.00 0.00 61 1001.0
20260509231509 72 297 0.9 1.7 0.00 0.00 0.00 61 1001.0
20260509230951 74 236 0.9 1.7 0.00 0.00 0.00 58 1001.0
20260509230332 74 350 0.9 0.9 0.00 0.00 0.00 60 1001.0
20260509225146 73 329 1.7 2.6 0.00 0.00 0.00 58 1001.0
20260509224535 73 31 4.3 5.2 0.00 0.00 0.00 57 1001.0
20260509223928 73 332 2.6 2.6 0.00 0.00 0.00 58 1001.0
20260509223343 73 305 2.6 3.5 0.00 0.00 0.00 59 1001.0
20260509222130 74 280 2.6 3.5 0.00 0.00 0.00 58 1001.0
20260509220917 75 18 0.9 0.9 0.00 0.00 0.00 57 1000.6
20260509220325 74 335 1.7 1.7 0.00 0.00 0.00 56 1001.0
20260509215723 74 13 2.6 2.6 0.00 0.00 0.00 55 1001.0
20260509215134 74 339 3.5 3.5 0.00 0.00 0.00 56 1001.0
20260509214520 75 286 7.8 8.7 0.00 0.00 0.00 56 1001.3
20260509213334 75 312 2.6 3.5 0.00 0.00 0.00 56 1001.0
20260509212738 74 299 1.7 1.7 0.00 0.00 0.00 57 1001.0
20260509212145 73 26 4.3 6.1 0.00 0.00 0.00 57 1001.3
20260509211542 74 324 3.5 3.5 0.00 0.00 0.00 57 1001.3
20260509210931 71 302 1.7 1.7 0.00 0.00 0.00 61 1001.0
20260509210318 72 9 3.5 3.5 0.00 0.00 0.00 59 1001.3
20260509205747 73 358 2.6 3.5 0.00 0.00 0.00 58 1001.0
20260509205134 73 299 2.6 2.6 0.00 0.00 0.00 57 1001.0
20260509204537 72 296 0.9 0.9 0.00 0.00 0.00 60 1001.0
20260509203950 72 308 3.5 5.2 0.00 0.00 0.00 59 1001.3
20260509203321 71 3 1.7 1.7 0.00 0.00 0.00 60 1001.3
20260509202753 72 320 1.7 1.7 0.00 0.00 0.00 61 1001.0
20260509202126 72 290 5.2 7.0 0.00 0.00 0.00 57 1001.3
20260509201532 72 341 3.5 3.5 0.00 0.00 0.00 59 1001.3
20260509200939 71 302 3.5 5.2 0.00 0.00 0.00 63 1001.0
20260509200309 73 5 3.5 3.5 0.00 0.00 0.00 60 1001.3
20260509195125 72 345 3.5 5.2 0.00 0.00 0.00 62 1001.3
20260509193915 70 301 2.6 2.6 0.00 0.00 0.00 64 1001.6
20260509193337 70 355 1.7 1.7 0.00 0.00 0.00 66 1001.6
20260509192748 71 13 4.3 6.1 0.00 0.00 0.00 62 1001.6
20260509191528 71 351 3.5 6.1 0.00 0.00 0.00 62 1001.6
20260509190313 71 322 3.5 3.5 0.00 0.00 0.00 64 1001.6
20260509185750 71 1 3.5 7.0 0.00 0.00 0.00 63 1001.6
20260509185114 71 348 1.7 2.6 0.00 0.00 0.00 64 1001.6
20260509184531 70 352 0.9 1.7 0.00 0.00 0.00 66 1001.6
20260509183936 70 329 2.6 2.6 0.00 0.00 0.00 68 1001.6
20260509183343 69 19 4.3 5.2 0.00 0.00 0.00 66 1001.6
20260509182727 69 13 3.5 5.2 0.00 0.00 0.00 68 1001.6
20260509182153 68 303 5.2 7.0 0.00 0.00 0.00 66 1001.6
20260509181515 68 26 3.5 3.5 0.00 0.00 0.00 69 1001.6
20260509180942 68 9 3.5 3.5 0.00 0.00 0.00 67 1001.6
20260509180315 68 357 4.3 6.1 0.00 0.00 0.00 67 1001.6
20260509175737 67 319 2.6 2.6 0.00 0.00 0.00 69 1001.6
20260509175152 67 332 3.5 5.2 0.00 0.00 0.00 68 1001.6
20260509174526 67 342 3.5 3.5 0.00 0.00 0.00 70 1002.0
20260509173310 67 352 1.7 1.7 0.00 0.00 0.00 69 1002.0
20260509172726 66 323 2.6 2.6 0.00 0.00 0.00 71 1002.0
20260509171510 64 14 1.7 2.6 0.00 0.00 0.00 70 1002.0
20260509170921 65 325 3.5 5.2 0.00 0.00 0.00 70 1002.0
20260509170323 65 350 3.5 6.1 0.00 0.00 0.00 69 1002.3
20260509165719 64 328 1.7 1.7 0.00 0.00 0.00 68 1002.3
20260509165132 63 321 3.5 3.5 0.00 0.00 0.00 70 1002.3
20260509164539 63 13 1.7 2.6 0.00 0.00 0.00 71 1002.3
20260509163934 63 12 1.7 1.7 0.00 0.00 0.00 71 1002.7
20260509162115 64 344 2.6 3.5 0.00 0.00 0.00 70 1002.3
20260509161540 63 273 1.7 1.7 0.00 0.00 0.00 72 1002.7
20260509160930 63 299 2.6 3.5 0.00 0.00 0.00 71 1002.7
20260509160345 63 330 1.7 1.7 0.00 0.00 0.00 72 1002.3
20260509155716 63 341 0.9 1.7 0.00 0.00 0.00 71 1002.0
20260509154540 63 356 1.7 1.7 0.00 0.00 0.00 69 1002.0
20260509153940 63 307 1.7 1.7 0.00 0.00 0.00 71 1002.0
20260509153324 63 327 1.7 2.6 0.00 0.00 0.00 72 1002.0
20260509152127 62 314 0.9 1.7 0.00 0.00 0.00 71 1002.0
20260509150915 62 318 0.0 0.9 0.00 0.00 0.00 73 1002.0
20260509150315 62 315 0.9 0.9 0.00 0.00 0.00 74 1002.0
20260509145740 61 281 0.0 0.0 0.00 0.00 0.00 77 1002.0
20260509145127 61 264 0.0 0.0 0.00 0.00 0.00 76 1002.0
20260509144508 61 275 0.0 0.0 0.00 0.00 0.00 79 1002.0
20260509143907 60 277 0.0 0.0 0.00 0.00 0.00 77 1002.0
20260509142746 60 270 0.0 0.0 0.00 0.00 0.00 79 1002.0
20260509141517 60 279 0.0 0.0 0.00 0.00 0.00 82 1002.0
20260509140924 60 292 0.0 0.0 0.00 0.00 0.00 82 1002.3
20260509140344 60 280 0.0 0.0 0.00 0.00 0.00 81 1002.3
20260509135710 60 279 0.0 0.0 0.00 0.00 0.00 81 1002.7
20260509135112 60 273 0.0 0.0 0.00 0.00 0.00 80 1002.7
20260509134545 59 287 0.0 0.0 0.00 0.00 0.00 78 1002.7
20260509133914 60 300 0.9 0.9 0.00 0.00 0.00 79 1002.7
20260509132743 60 289 0.9 1.7 0.00 0.00 0.00 80 1002.0
20260509132132 59 273 0.0 0.9 0.00 0.00 0.00 80 1001.6
20260509131511 59 275 0.0 0.9 0.00 0.00 0.00 81 1002.0
20260509130917 58 259 0.0 0.9 0.00 0.00 0.00 82 1001.6
20260509130311 58 234 0.9 0.9 0.00 0.00 0.00 81 1001.6
20260509125721 58 263 0.0 0.9 0.00 0.00 0.00 82 1002.0
20260509125123 57 274 0.9 0.9 0.00 0.00 0.00 85 1002.3
20260509123935 56 286 0.9 0.9 0.00 0.00 0.00 85 1002.0
20260509123351 56 288 0.9 0.9 0.00 0.00 0.00 86 1002.0
20260509122746 57 272 0.0 0.0 0.00 0.00 0.00 87 1002.0
20260509122142 56 265 0.0 0.0 0.00 0.00 0.00 86 1002.3
20260509121510 56 265 0.0 0.0 0.00 0.00 0.00 87 1002.3
20260509120914 55 263 0.0 0.0 0.00 0.00 0.00 87 1002.3
20260509120320 55 257 0.0 0.9 0.00 0.00 0.00 88 1002.3
20260509115739 55 266 0.0 0.0 0.00 0.00 0.00 88 1002.3
20260509115121 54 250 0.0 0.0 0.00 0.00 0.00 88 1002.3
20260509113926 54 276 0.0 0.0 0.00 0.00 0.00 89 1002.0
20260509113325 54 276 0.0 0.0 0.00 0.00 0.00 90 1002.0
20260509112131 53 268 0.0 0.0 0.00 0.00 0.00 90 1002.0
20260509110934 53 269 0.0 0.0 0.00 0.00 0.00 90 1002.0
20260509110313 53 268 0.0 0.0 0.00 0.00 0.00 90 1002.0
20260509104545 53 262 0.0 0.0 0.00 0.00 0.00 90 1002.0
20260509103940 53 261 0.0 0.0 0.00 0.00 0.00 90 1001.6
20260509103313 53 286 0.0 0.0 0.00 0.00 0.00 90 1002.0
20260509102735 53 265 0.0 0.0 0.00 0.00 0.00 90 1002.0
20260509102123 53 258 0.0 0.0 0.00 0.00 0.00 90 1002.0
20260509101514 53 207 0.9 0.9 0.00 0.00 0.00 89 1001.6
20260509100920 53 210 0.9 1.7 0.00 0.00 0.00 89 1001.6
20260509100325 53 277 0.0 0.0 0.00 0.00 0.00 88 1001.3
20260509095736 53 274 0.0 0.0 0.00 0.00 0.00 88 1001.6
20260509095147 53 276 0.0 0.0 0.00 0.00 0.00 87 1001.6
20260509094533 53 283 0.0 0.0 0.00 0.00 0.00 87 1001.6
20260509093330 53 276 0.0 0.0 0.00 0.00 0.00 87 1001.6
20260509092117 53 271 0.0 0.0 0.00 0.00 0.00 86 1002.0
20260509090945 53 283 0.0 0.0 0.00 0.00 0.00 86 1001.6
20260509090350 53 284 0.9 0.9 0.00 0.00 0.00 85 1001.6
20260509085712 53 273 0.0 0.0 0.00 0.00 0.00 85 1001.3
20260509085139 53 262 0.0 0.0 0.00 0.00 0.00 86 1001.6
20260509084532 53 266 0.0 0.0 0.00 0.00 0.00 86 1001.6
20260509083918 53 266 0.0 0.0 0.00 0.00 0.00 86 1001.6
20260509083337 53 268 0.0 0.0 0.00 0.00 0.00 85 1001.6
20260509082747 53 268 0.0 0.0 0.00 0.00 0.00 84 1002.0
20260509080323 54 268 0.0 0.0 0.00 0.00 0.00 83 1002.0
20260509075754 54 266 0.0 0.0 0.00 0.00 0.00 82 1002.0
20260509075135 54 263 0.0 0.0 0.00 0.00 0.00 82 1002.0
20260509073323 54 269 0.0 0.0 0.00 0.00 0.00 81 1002.0
20260509072738 54 301 0.0 0.0 0.00 0.00 0.00 81 1001.6
20260509071519 54 321 0.0 0.0 0.00 0.00 0.00 81 1002.0
20260509070324 54 265 0.0 0.0 0.00 0.00 0.00 81 1002.3
20260509065751 55 266 0.0 0.0 0.00 0.00 0.00 81 1002.0
20260509064519 55 266 0.0 0.0 0.00 0.00 0.00 81 1002.0
20260509063913 55 266 0.0 0.0 0.00 0.00 0.00 81 1002.0
20260509063311 55 266 0.0 0.0 0.00 0.00 0.00 80 1002.0
20260509062719 55 193 0.0 0.0 0.00 0.00 0.00 80 1002.0
20260509062128 55 213 0.0 0.0 0.00 0.00 0.00 80 1002.0
20260509060912 55 233 0.0 0.0 0.00 0.00 0.00 79 1002.0
20260509060335 55 270 0.0 0.0 0.00 0.00 0.00 78 1002.0
20260509054513 55 269 0.0 0.0 0.00 0.00 0.00 78 1002.3
20260509053935 55 269 0.0 0.0 0.00 0.00 0.00 77 1002.3
20260509053346 55 266 0.0 0.0 0.00 0.00 0.00 78 1002.3
20260509052735 55 264 0.0 0.0 0.00 0.00 0.00 77 1002.3
20260509052136 56 263 0.0 0.0 0.00 0.00 0.00 76 1002.3
20260509051536 56 266 0.0 0.0 0.00 0.00 0.00 75 1002.3
20260509050939 56 213 0.0 0.0 0.00 0.00 0.00 75 1002.3
20260509045724 56 233 0.0 0.0 0.00 0.00 0.00 74 1002.0
20260509045135 56 233 0.0 0.0 0.00 0.00 0.00 74 1002.0
20260509044542 56 301 0.0 0.0 0.00 0.00 0.00 74 1002.3
20260509043947 56 264 0.0 0.0 0.00 0.00 0.00 74 1002.0
20260509043336 56 270 0.0 0.0 0.00 0.00 0.00 74 1002.3
20260509042740 56 271 0.0 0.0 0.00 0.00 0.00 74 1002.3
20260509042146 57 272 0.0 0.0 0.00 0.00 0.00 73 1002.3
20260509041539 57 272 0.0 0.0 0.00 0.00 0.00 72 1002.7
20260509040310 57 272 0.0 0.0 0.00 0.00 0.00 71 1002.7
20260509035750 57 268 0.0 0.0 0.00 0.00 0.00 73 1002.7
20260509035153 57 341 0.0 0.0 0.00 0.00 0.00 72 1002.7
20260509034542 57 268 0.0 0.0 0.00 0.00 0.00 71 1002.7
20260509033926 57 270 0.0 0.0 0.00 0.00 0.00 70 1002.7
20260509033318 58 276 0.0 0.0 0.00 0.00 0.00 71 1002.7
20260509031510 58 265 0.0 0.0 0.00 0.00 0.00 73 1003.0
20260509030315 58 273 0.0 0.0 0.00 0.00 0.00 72 1003.0
20260509025711 58 279 0.0 0.0 0.00 0.00 0.00 72 1003.0
20260509025140 58 275 0.0 0.0 0.00 0.00 0.00 74 1003.3
20260509024550 58 269 0.0 0.0 0.00 0.00 0.00 72 1002.7
20260509023918 59 279 0.0 0.0 0.00 0.00 0.00 71 1003.0
20260509023313 59 287 0.0 0.0 0.00 0.00 0.00 65 1003.0
20260509022717 59 273 0.0 0.0 0.00 0.00 0.00 65 1003.0
20260509021510 59 233 0.0 0.0 0.00 0.00 0.00 64 1003.0
20260509020909 59 271 0.0 0.0 0.00 0.00 0.00 64 1003.0
20260509020312 59 270 0.0 0.0 0.00 0.00 0.00 65 1003.0
20260509015739 60 274 0.0 0.0 0.00 0.00 0.00 66 1003.0
20260509015127 60 277 0.0 0.0 0.00 0.00 0.00 66 1003.0
20260509014516 60 341 0.0 0.0 0.00 0.00 0.00 64 1003.0
20260509013934 60 263 0.0 0.0 0.00 0.00 0.00 65 1003.0
20260509013344 60 275 0.0 0.0 0.00 0.00 0.00 64 1003.0
20260509012746 60 287 0.0 0.0 0.00 0.00 0.00 67 1002.7
20260509012113 60 287 0.0 0.0 0.00 0.00 0.00 64 1003.0
20260509010930 61 252 0.0 0.0 0.00 0.00 0.00 62 1002.7
20260509010308 61 260 0.0 0.0 0.00 0.00 0.00 62 1002.7
20260509005746 61 261 0.0 0.0 0.00 0.00 0.00 61 1003.0
20260509005138 61 273 0.0 0.0 0.00 0.00 0.00 64 1002.7
20260509004522 61 254 0.0 0.0 0.00 0.00 0.00 61 1002.7
20260509003315 61 271 0.0 0.0 0.00 0.00 0.00 61 1002.7
20260509002713 62 271 0.0 0.0 0.00 0.00 0.00 60 1003.0